When you browse on this site, cookies collect data to enhance your experience and personalize the content and advertising you see.
Visit our Privacy Policy to learn more. By continuing to use the site, you agree to this use of cookies and data.
  • In Portugal
  • List of Countries
  • For 7 days
  • Water Temperature
  • Satellite Maps
  • Weather Map
  • Weather Widgets
  • user-avatar
    Login

    Hourly Weather Gogolow

    Today, 21 March, Thursday

    Time Temperature Precipitation Wind Pressure Humidity
    00:00 +3°C° 0 mm 1 mps 751 mmHg 67%
    01:00 +1°C° 0 mm 2 mps 751 mmHg 68%
    02:00 +1°C° 0 mm 2 mps 751 mmHg 69%
    03:00 +1°C° 0 mm 2 mps 750 mmHg 70%
    04:00 +1°C° 0 mm 2 mps 750 mmHg 70%
    05:00 +2°C° 0 mm 2 mps 750 mmHg 68%
    06:00 +2°C° 0 mm 2 mps 750 mmHg 66%
    07:00 +3°C° 0 mm 2 mps 751 mmHg 63%
    08:00 +4°C° 0 mm 3 mps 751 mmHg 58%
    09:00 +7°C° 0 mm 3 mps 751 mmHg 52%
    10:00 +8°C° 0 mm 4 mps 751 mmHg 47%
    11:00 +10°C° 0 mm 4 mps 750 mmHg 48%
    12:00 +10°C° 0 mm 4 mps 750 mmHg 50%
    13:00 +10°C° 0 mm 5 mps 750 mmHg 51%
    14:00 +10°C° 0 mm 5 mps 749 mmHg 55%
    15:00 +11°C° 0 mm 4 mps 749 mmHg 58%
    16:00 +11°C° 0 mm 4 mps 749 mmHg 61%
    17:00 +10°C° 0 mm 3 mps 749 mmHg 67%
    18:00 +9°C° 0 mm 3 mps 749 mmHg 73%
    19:00 +8°C° 0 mm 2 mps 749 mmHg 79%
    20:00 +8°C° 0 mm 2 mps 749 mmHg 80%
    21:00 +7°C° 0 mm 2 mps 750 mmHg 81%
    22:00 +7°C° 0 mm 2 mps 750 mmHg 83%
    23:00 +7°C° 0 mm 2 mps 750 mmHg 83%

    Tomorrow, 22 March, Friday

    Time Temperature Precipitation Wind Pressure Humidity
    00:00 +7°C° 0 mm 2 mps 750 mmHg 84%
    01:00 +7°C° 0 mm 2 mps 750 mmHg 85%
    02:00 +7°C° 0 mm 2 mps 749 mmHg 85%
    03:00 +7°C° 0 mm 2 mps 749 mmHg 86%
    04:00 +7°C° 0 mm 3 mps 749 mmHg 86%
    05:00 +7°C° 0 mm 3 mps 749 mmHg 86%
    06:00 +8°C° 0 mm 3 mps 749 mmHg 85%
    07:00 +8°C° 0 mm 3 mps 749 mmHg 85%
    08:00 +8°C° 0.2 mm 3 mps 749 mmHg 86%
    09:00 +8°C° 0.2 mm 3 mps 749 mmHg 87%
    10:00 +9°C° 0.2 mm 3 mps 749 mmHg 87%
    11:00 +10°C° 0.1 mm 3 mps 749 mmHg 84%
    12:00 +11°C° 0.1 mm 3 mps 749 mmHg 80%
    13:00 +12°C° 0.1 mm 3 mps 749 mmHg 76%
    14:00 +12°C° 0.1 mm 3 mps 748 mmHg 80%
    15:00 +12°C° 0.1 mm 2 mps 748 mmHg 83%
    16:00 +12°C° 0.1 mm 2 mps 748 mmHg 87%
    17:00 +10°C° 0 mm 2 mps 748 mmHg 89%
    18:00 +10°C° 0 mm 1 mps 748 mmHg 91%
    19:00 +9°C° 0 mm 1 mps 748 mmHg 93%
    20:00 +9°C° 0 mm 1 mps 748 mmHg 94%
    21:00 +8°C° 0 mm 0 mps 748 mmHg 94%
    22:00 +8°C° 0 mm 0 mps 748 mmHg 95%
    23:00 +7°C° 0 mm 0 mps 748 mmHg 95%

    Day after tomorrow, 23 March, Saturday

    Time Temperature Precipitation Wind Pressure Humidity
    00:00 +7°C° 0 mm 0 mps 748 mmHg 95%
    01:00 +6°C° 0 mm 0 mps 747 mmHg 95%
    02:00 +6°C° 0 mm 0 mps 747 mmHg 95%
    03:00 +5°C° 0 mm 0 mps 747 mmHg 96%
    04:00 +5°C° 0 mm 0 mps 747 mmHg 96%
    05:00 +6°C° 0 mm 0 mps 747 mmHg 95%
    06:00 +6°C° 0 mm 0 mps 746 mmHg 94%
    07:00 +7°C° 0 mm 0 mps 746 mmHg 93%
    08:00 +9°C° 0 mm 0 mps 746 mmHg 85%
    09:00 +10°C° 0 mm 0 mps 746 mmHg 78%
    10:00 +12°C° 0 mm 0 mps 746 mmHg 70%
    11:00 +13°C° 0 mm 0 mps 746 mmHg 66%
    12:00 +15°C° 0 mm 1 mps 745 mmHg 63%
    13:00 +16°C° 0 mm 1 mps 745 mmHg 59%
    14:00 +16°C° 0 mm 1 mps 745 mmHg 58%
    15:00 +16°C° 0 mm 1 mps 744 mmHg 57%
    16:00 +16°C° 0 mm 1 mps 744 mmHg 56%
    17:00 +15°C° 0 mm 1 mps 744 mmHg 62%
    18:00 +13°C° 0 mm 1 mps 744 mmHg 68%
    19:00 +11°C° 0 mm 0 mps 744 mmHg 73%
    20:00 +11°C° 0 mm 1 mps 744 mmHg 75%
    21:00 +11°C° 0 mm 1 mps 744 mmHg 77%
    22:00 +10°C° 0 mm 2 mps 744 mmHg 79%
    23:00 +9°C° 0 mm 2 mps 744 mmHg 80%

    24 March, Sunday

    Time Temperature Precipitation Wind Pressure Humidity
    00:00 +9°C° 0 mm 2 mps 744 mmHg 82%
    01:00 +9°C° 0 mm 2 mps 744 mmHg 83%
    02:00 +8°C° 0 mm 2 mps 744 mmHg 83%
    03:00 +8°C° 0 mm 2 mps 744 mmHg 83%
    04:00 +8°C° 0 mm 2 mps 743 mmHg 83%
    05:00 +9°C° 0 mm 1 mps 744 mmHg 83%
    06:00 +10°C° 0 mm 1 mps 744 mmHg 83%
    07:00 +10°C° 0 mm 1 mps 744 mmHg 82%
    08:00 +10°C° 0 mm 2 mps 744 mmHg 82%
    09:00 +10°C° 0 mm 2 mps 744 mmHg 82%
    10:00 +12°C° 0 mm 2 mps 744 mmHg 82%
    11:00 +10°C° 0 mm 2 mps 744 mmHg 82%
    12:00 +10°C° 0 mm 2 mps 743 mmHg 82%
    13:00 +10°C° 0 mm 2 mps 743 mmHg 83%
    14:00 +10°C° 0 mm 2 mps 743 mmHg 80%
    15:00 +12°C° 0 mm 1 mps 742 mmHg 77%
    16:00 +12°C° 0 mm 1 mps 742 mmHg 74%
    17:00 +11°C° 0 mm 1 mps 742 mmHg 78%
    18:00 +11°C° 0 mm 1 mps 742 mmHg 82%
    19:00 +10°C° 0 mm 1 mps 742 mmHg 86%
    20:00 +10°C° 0 mm 1 mps 741 mmHg 87%
    21:00 +10°C° 0 mm 1 mps 741 mmHg 87%
    22:00 +9°C° 0 mm 0 mps 741 mmHg 88%
    23:00 +9°C° 0.1 mm 1 mps 740 mmHg 90%

    25 March, Monday

    Time Temperature Precipitation Wind Pressure Humidity
    00:00 +9°C° 0.1 mm 1 mps 739 mmHg 92%
    01:00 +8°C° 0.1 mm 1 mps 739 mmHg 93%
    02:00 +8°C° 0.4 mm 1 mps 738 mmHg 94%
    03:00 +7°C° 0.4 mm 0 mps 738 mmHg 95%
    04:00 +7°C° 0.4 mm 0 mps 737 mmHg 96%
    05:00 +8°C° 1.8 mm 1 mps 737 mmHg 96%
    06:00 +7°C° 1.8 mm 2 mps 736 mmHg 96%
    07:00 +7°C° 1.8 mm 3 mps 736 mmHg 96%
    08:00 +6°C° 0.2 mm 4 mps 736 mmHg 93%
    09:00 +7°C° 0.2 mm 5 mps 736 mmHg 90%
    10:00 +7°C° 0.2 mm 6 mps 737 mmHg 88%
    11:00 +8°C° 0 mm 6 mps 736 mmHg 78%
    12:00 +8°C° 0 mm 6 mps 736 mmHg 68%
    13:00 +9°C° 0 mm 6 mps 736 mmHg 59%
    14:00 +9°C° 0 mm 6 mps 736 mmHg 56%
    15:00 +9°C° 0 mm 6 mps 736 mmHg 54%
    16:00 +9°C° 0 mm 6 mps 735 mmHg 52%
    17:00 +8°C° 0 mm 5 mps 735 mmHg 57%
    18:00 +7°C° 0 mm 4 mps 735 mmHg 62%
    19:00 +5°C° 0 mm 3 mps 735 mmHg 67%
    20:00 +5°C° 0 mm 3 mps 735 mmHg 68%
    21:00 +4°C° 0 mm 4 mps 735 mmHg 69%
    22:00 +4°C° 0 mm 4 mps 735 mmHg 70%
    23:00 +2°C° 0.1 mm 5 mps 735 mmHg 72%

    26 March, Tuesday

    Time Temperature Precipitation Wind Pressure Humidity
    00:00 +2°C° 0.1 mm 6 mps 735 mmHg 74%
    01:00 +1°C° 0.1 mm 6 mps 735 mmHg 76%
    02:00 +1°C° 0.2 mm 6 mps 735 mmHg 76%
    03:00 -1°C° 0.2 mm 6 mps 735 mmHg 76%
    04:00 0°C° 0.2 mm 5 mps 734 mmHg 76%
    05:00 -1°C° 0.1 mm 6 mps 734 mmHg 75%
    06:00 -1°C° 0.1 mm 7 mps 734 mmHg 74%
    07:00 -1°C° 0.1 mm 8 mps 734 mmHg 72%
    08:00 0°C° 0.2 mm 9 mps 734 mmHg 70%
    09:00 0°C° 0.2 mm 9 mps 734 mmHg 68%
    10:00 +1°C° 0.2 mm 9 mps 734 mmHg 65%
    11:00 0°C° 0.4 mm 9 mps 734 mmHg 67%
    12:00 0°C° 0.4 mm 9 mps 734 mmHg 70%
    13:00 -1°C° 0.4 mm 9 mps 734 mmHg 72%
    14:00 -1°C° 0.2 mm 9 mps 734 mmHg 73%
    15:00 -1°C° 0.2 mm 9 mps 735 mmHg 74%
    16:00 -1°C° 0.2 mm 8 mps 735 mmHg 75%
    17:00 -1°C° 0.5 mm 8 mps 736 mmHg 76%
    18:00 -2°C° 0.5 mm 7 mps 736 mmHg 77%
    19:00 -2°C° 0.5 mm 7 mps 737 mmHg 78%
    20:00 -3°C° 0.1 mm 7 mps 738 mmHg 80%
    21:00 -3°C° 0.1 mm 7 mps 738 mmHg 82%
    22:00 -3°C° 0.1 mm 6 mps 738 mmHg 84%
    23:00 -3°C° 0.7 mm 7 mps 738 mmHg 86%
    Show more